EHI
4 8 16 16 9 12 20 15 7 5 4 3 2 2 2 4 7 14 26 42 51 47 36 23 12 7 4 2 0 0 0 0 0 0 0 0 0 0 0 0 0 0 0
15 20 27 26 19 21 30 28 18 14 13 8 5 4 4 7 11 13 18 29 42 45 38 28 19 12 7 3 1 0 1 1 0 0 0 0 0 0 0 0 0 0 0
38 43 46 43 37 37 47 47 36 29 25 18 15 12 12 15 17 16 14 16 25 33 36 33 28 21 13 6 2 1 3 4 3 2 1 0 0 0 0 0 0 0 0
62 65 63 57 55 57 61 58 50 43 35 31 27 24 24 26 23 19 16 13 14 19 26 31 31 27 19 9 3 2 4 5 5 4 2 0 0 1 0 0 0 0 0
75 77 73 68 68 70 67 61 57 53 47 40 33 29 30 29 23 17 14 12 10 11 14 18 21 22 17 10 5 4 5 5 5 3 1 0 0 0 0 0 0 0 0
81 79 75 73 74 71 65 61 58 56 53 43 28 21 20 19 15 11 8 7 6 5 4 5 8 9 10 8 6 5 5 3 2 1 0 0 0 0 0 0 0 0 0
81 77 72 70 71 67 60 56 53 51 47 36 21 11 7 5 5 4 3 2 2 1 0 0 1 2 4 5 4 4 3 1 0 0 0 0 0 0 0 0 0 0 0
76 72 65 62 62 58 51 45 44 43 37 25 14 7 2 1 1 1 0 0 0 0 0 0 0 0 1 1 1 1 1 0 0 0 0 0 0 0 0 0 0 0 0
68 63 55 52 50 46 40 35 34 33 27 17 9 4 2 1 0 0 0 0 0 0 0 0 0 0 0 0 0 0 0 0 0 0 0 0 0 0 0 0 0 0 0
54 49 42 38 36 33 30 27 25 21 17 11 5 2 1 1 0 0 0 0 0 0 0 0 0 0 0 0 0 0 0 0 0 0 0 0 0 0 0 0 0 0 0
35 31 26 23 22 21 21 19 16 12 8 6 3 1 0 0 0 0 0 0 0 0 0 0 0 0 0 0 0 0 0 0 0 0 0 0 0 0 0 0 0 0 0
19 16 13 11 11 11 11 10 7 5 4 3 2 1 0 0 0 0 0 0 0 0 0 0 0 0 0 0 0 0 0 0 0 0 0 0 0 0 0 0 0 0 0
11 9 7 5 5 5 5 4 3 1 1 2 1 0 0 0 0 0 0 0 0 0 0 0 0 0 0 0 0 0 0 0 0 0 0 0 0 0 0 0 0 0 0
6 4 3 3 2 2 2 2 1 0 0 0 0 0 0 0 0 0 0 0 0 0 0 0 0 0 0 0 0 0 0 0 0 0 0 0 0 0 0 0 0 0 0
1 1 1 1 1 1 1 1 0 0 0 0 0 0 0 0 0 0 0 0 0 0 0 0 0 0 0 0 0 0 0 0 0 0 0 0 0 0 0 0 0 0 0
0 0 0 0 0 0 0 0 0 0 0 0 0 0 0 0 0 0 0 0 0 0 0 0 0 0 0 0 0 0 0 0 0 0 0 0 0 0 0 0 0 0 0
0 0 0 0 0 0 0 0 0 0 0 0 0 0 0 0 0 0 0 0 0 0 0 0 0 0 0 0 0 0 0 0 0 0 0 0 0 0 0 0 0 0 0
0 0 0 0 0 0 0 0 0 0 0 0 0 0 0 0 0 0 0 0 0 0 0 0 0 0 0 0 0 0 0 0 0 0 0 0 0 0 0 0 0 0 0
0 0 0 0 0 0 0 0 0 0 0 0 0 0 0 0 0 0 0 0 0 0 0 0 0 0 0 0 0 0 0 0 0 0 0 0 0 0 0 0 0 0 0
0 0 0 0 0 0 0 0 0 0 0 0 0 0 0 0 0 0 0 0 0 0 0 0 0 0 0 0 0 0 0 0 0 0 0 0 0 0 0 0 0 0 0
0 0 0 0 0 0 0 0 0 0 0 0 0 0 0 0 0 0 0 0 0 0 0 0 0 0 0 0 0 0 0 0 0 0 0 0 0 0 0 0 0 0 0
0 0 0 0 0 0 0 0 0 0 0 0 0 0 0 0 0 0 0 0 0 0 0 0 0 0 0 0 0 0 0 0 0 0 0 0 0 0 0 0 0 0 0
0 0 0 0 0 0 0 0 0 0 0 0 0 0 0 0 0 0 0 0 0 0 0 0 0 0 0 0 0 0 0 0 0 0 0 0 0 0 0 0 0 0 0
0 0 0 0 0 0 0 0 0 0 0 0 0 0 0 0 0 0 0 0 0 0 0 0 0 0 0 0 0 0 0 0 0 0 0 0 0 0 0 0 0 0 0
0 0 0 0 0 0 0 0 0 0 0 0 0 0 0 0 0 0 0 0 0 0 0 0 0 0 0 0 0 0 0 0 0 0 0 0 0 0 0 0 0 0 0
0 0 0 0 0 0 0 0 0 0 0 0 0 0 0 0 0 0 0 0 0 0 0 0 0 0 0 0 0 0 0 0 0 0 0 0 0 0 0 0 0 0 0
Wind_Speed
4 3 3 3 4 4 5 5 5 4 3 2 3 4 3 1 3 6 7 14 14 13 13 13 12 10 9 9 8 7 6 6 5 4 4 3 3 3 3 3 3 3 4
4 2 2 2 2 1 1 2 2 1 1 2 3 3 1 1 2 6 7 9 13 13 13 13 12 12 11 10 8 8 7 6 5 5 4 3 3 3 2 2 2 2 2
3 3 2 2 2 2 1 1 2 1 2 3 3 2 1 1 1 4 6 5 7 10 11 11 12 12 11 11 10 9 8 7 6 5 4 4 3 3 2 2 2 2 2
4 3 2 2 2 1 1 1 2 2 2 2 1 1 1 1 1 2 4 4 5 6 8 10 11 11 11 11 10 9 8 7 6 5 5 4 4 4 3 4 4 4 4
4 4 2 2 2 2 1 3 2 2 2 1 1 0 1 2 1 1 2 3 4 5 5 8 11 11 11 11 10 9 9 8 7 5 5 5 5 5 6 7 7 7 8
5 4 3 3 3 2 2 2 2 1 1 1 2 0 1 1 1 0 1 2 3 5 6 6 6 6 10 10 9 8 8 7 6 5 4 4 4 4 5 7 8 10 11
4 4 3 3 3 3 3 3 2 3 2 1 1 1 1 1 0 0 0 1 2 3 4 5 4 4 4 7 7 7 5 4 3 2 0 2 3 3 4 5 7 8 10
4 4 3 2 2 2 3 4 3 2 2 2 2 2 1 1 2 1 1 1 2 2 3 5 3 4 4 3 6 8 6 5 4 3 4 5 5 6 7 8 10 10 11
3 2 2 2 2 2 3 4 4 5 3 3 3 3 3 4 2 1 1 1 1 1 1 2 3 3 4 5 5 7 9 7 6 4 4 5 7 8 9 11 12 13 14
3 2 1 1 0 0 1 3 2 2 3 3 2 2 1 1 2 2 1 1 1 1 1 1 2 3 4 5 7 10 10 8 5 4 5 7 9 10 11 12 13 14 15
5 5 5 4 3 3 3 3 3 2 0 1 1 1 1 0 0 2 2 2 1 1 1 1 1 2 4 6 6 8 9 6 3 2 5 8 10 12 13 14 15 15 16
5 7 7 6 6 5 6 6 5 6 5 4 3 3 2 1 1 1 1 1 1 1 1 1 1 1 2 3 6 10 8 5 3 2 5 8 11 12 14 15 16 16 17
6 8 8 9 8 8 8 8 8 8 8 8 6 5 5 4 2 2 2 1 1 1 1 1 1 1 2 3 4 7 6 6 6 6 7 9 11 13 14 15 16 17 18
8 9 10 11 11 10 10 9 9 9 9 9 10 8 6 6 5 5 3 2 1 1 0 0 0 1 1 3 5 4 2 4 7 9 10 11 12 13 14 15 16 17 18
10 13 13 13 12 12 12 10 9 10 9 9 9 9 7 6 6 5 5 4 2 2 2 1 1 1 1 2 4 1 2 5 7 10 13 13 13 14 15 15 16 17 17
12 13 13 13 13 12 12 11 9 9 10 9 7 8 7 5 5 4 4 3 2 2 1 2 2 2 2 2 1 2 3 8 10 12 14 14 13 15 16 17 17 17 17
12 13 12 12 12 11 10 9 8 8 8 7 6 6 6 5 4 4 3 3 2 2 2 2 2 2 3 3 3 3 4 5 5 9 11 12 14 16 17 17 18 17 17
11 11 11 11 10 9 8 8 8 7 6 6 5 4 4 4 4 3 3 3 2 1 1 3 3 3 4 4 4 4 5 6 4 8 9 12 14 15 16 17 18 17 17
10 10 10 9 8 7 7 6 5 4 3 3 3 3 2 3 3 2 3 2 3 3 2 3 4 4 4 4 3 4 5 4 6 8 8 9 12 14 16 17 17 16 15
9 8 8 7 8 8 8 7 5 3 2 2 2 2 2 2 3 4 4 3 4 4 4 4 4 4 4 3 2 3 4 4 5 6 6 6 8 11 13 14 14 14 12
7 6 6 6 6 7 8 9 8 5 3 3 3 3 2 1 2 2 3 3 4 4 5 5 5 4 4 4 4 3 5 5 5 4 3 5 5 4 4 7 8 8 9
5 5 5 6 7 7 8 10 10 8 7 5 4 4 4 2 3 5 6 6 6 5 5 5 6 5 6 5 4 5 4 5 4 3 3 5 4 4 4 3 3 5 8
4 4 4 6 7 6 7 9 11 7 7 4 3 3 5 5 3 4 5 7 9 11 12 8 7 8 7 5 5 6 5 6 6 5 4 5 4 4 4 2 4 6 8
3 3 3 5 5 5 5 8 12 8 6 4 3 2 2 2 5 6 7 7 7 6 6 6 7 7 7 5 4 5 7 7 7 4 3 4 4 4 5 2 5 7 8
2 2 3 4 5 3 4 7 10 8 5 5 4 2 3 3 4 5 6 7 7 6 7 7 9 10 12 13 8 4 6 5 6 5 3 3 3 4 4 2 2 5 7
2 2 3 3 4 4 1 5 9 6 6 6 4 3 4 4 3 5 6 7 7 7 8 10 8 9 9 10 11 8 6 5 5 4 2 3 3 3 4 3 3 3 4
Wind_Direction
216 204 190 181 202 194 181 202 228 219 210 230 247 243 246 241 136 132 148 161 159 162 166 168 170 169 167 165 162 160 159 156 151 144 138 133 126 118 114 107 101 95 89
198 196 189 183 250 279 178 208 237 216 212 247 257 267 268 262 132 137 151 164 164 165 169 172 173 171 169 169 168 167 165 162 159 156 152 145 142 141 139 133 126 122 112
196 179 213 184 219 249 228 279 297 285 245 235 232 248 248 278 101 116 138 155 164 168 170 172 172 172 173 172 171 169 166 166 167 169 169 169 169 177 182 186 183 183 182
187 176 206 213 204 230 221 232 264 269 270 277 264 235 208 90 67 111 129 155 160 163 170 171 169 169 170 172 172 172 172 175 177 182 184 191 197 202 212 217 221 224 227
194 180 205 214 196 200 220 245 222 229 257 269 285 289 53 49 44 118 118 138 138 151 156 163 164 166 170 172 176 181 182 184 185 190 201 213 221 223 229 235 237 240 242
195 190 202 209 203 203 207 231 252 233 238 242 260 267 61 63 42 19 143 127 141 154 158 163 162 166 171 172 177 183 188 190 192 202 214 232 249 255 253 251 253 253 253
189 188 217 204 196 209 214 213 218 221 228 209 174 74 22 3 85 131 107 130 145 154 157 160 165 161 163 166 163 165 165 166 168 170 165 6 359 336 309 292 282 277 273
178 195 206 214 212 219 230 224 214 216 216 192 181 147 200 226 238 204 167 165 154 155 166 167 166 154 151 138 137 135 118 111 92 61 35 21 358 336 317 302 294 290 289
153 181 197 212 240 240 246 239 221 213 210 204 190 180 195 210 164 166 230 158 134 145 157 145 146 147 143 123 123 116 111 96 80 50 13 344 329 320 314 308 303 298 293
112 99 62 28 279 295 304 300 280 245 220 209 197 189 162 121 163 170 205 198 168 150 131 145 140 135 122 118 123 123 113 99 80 39 352 327 316 311 307 303 300 298 297
68 70 62 49 41 47 55 45 25 24 341 201 167 140 140 83 78 156 178 174 185 170 139 105 100 130 134 128 131 132 129 125 111 1 325 315 310 307 304 301 299 298 297
53 55 62 56 48 47 54 57 54 52 51 56 58 60 74 95 110 134 145 150 172 150 135 115 112 110 116 124 135 143 152 161 188 263 295 300 302 302 301 301 300 299 299
58 52 60 60 56 53 53 56 58 55 53 58 58 57 52 42 36 46 77 94 118 122 156 174 192 162 160 125 129 155 184 203 220 241 264 280 289 295 297 299 299 299 299
65 65 65 65 62 59 59 59 61 59 57 57 56 53 53 40 38 41 44 43 46 30 36 273 190 152 117 111 145 185 234 236 237 237 245 260 273 282 287 291 295 297 298
70 67 66 65 61 59 60 61 60 58 58 54 52 49 48 38 33 32 34 37 49 34 6 0 17 66 89 114 160 220 265 270 253 241 244 250 259 268 274 282 288 292 293
72 71 69 66 63 60 57 59 59 55 58 52 49 47 43 34 31 26 23 26 36 38 9 350 357 35 26 346 242 272 275 279 263 253 251 250 252 258 266 274 282 286 288
72 72 71 70 67 64 60 61 61 56 59 55 49 47 40 33 24 14 12 14 22 34 358 321 334 346 330 302 291 275 276 270 266 264 255 248 246 250 257 265 273 277 280
71 72 72 71 69 67 62 61 59 54 53 51 42 39 33 32 20 18 3 353 348 330 315 314 317 308 301 289 270 262 280 290 294 290 265 244 243 247 253 258 262 265 268
72 69 68 68 66 63 59 55 57 54 50 47 35 26 27 28 21 8 331 337 330 335 322 307 299 292 284 287 294 296 300 296 295 293 282 256 249 252 254 257 259 261 262
78 74 72 69 64 54 43 30 20 35 24 25 14 355 15 32 29 356 337 353 343 331 313 301 291 293 293 304 326 321 308 297 292 296 301 291 267 260 260 263 263 262 261
87 86 80 75 72 59 36 20 1 7 2 4 358 348 353 81 88 318 336 348 334 329 319 314 312 313 318 340 337 318 306 302 290 284 298 298 294 286 278 269 265 258 255
91 89 84 76 65 55 31 17 6 352 344 353 357 348 326 163 207 239 263 275 278 287 303 308 305 310 317 324 322 311 308 312 307 311 318 298 295 292 283 275 226 231 247
94 89 88 88 83 60 21 3 357 332 314 321 336 336 339 14 10 354 325 292 273 262 251 258 279 287 296 307 315 314 312 308 295 293 302 295 296 296 294 293 200 229 251
85 84 86 93 95 72 11 354 344 320 303 310 311 309 323 0 26 4 332 319 309 297 274 250 249 263 277 291 302 295 291 292 286 286 299 292 300 305 304 289 219 240 261
74 78 78 94 105 97 7 353 349 322 331 334 327 359 359 47 56 355 323 314 314 315 314 301 271 267 273 277 272 282 285 294 302 307 311 290 301 310 300 305 273 263 276
25 40 67 82 103 110 52 348 349 339 352 346 353 28 62 37 357 331 317 314 315 324 329 319 303 283 272 267 258 236 252 276 292 301 322 318 307 325 313 310 318 307 294